This demonstration page uses our WeatherBlox Daily Observations layout. Learn more.

Left ArrowRight Arrow

39.51506, -84.39828

Hourly Observations for August 2, 2021

Temp ( °F °C ) Dew Point ( °F °C ) Humidity (%) Winds ( mph kmh ) Pressure ( in mb ) Visibility ( mi km ) Precip ( " mm )
12:15 am 00:15 Clear 61 16.1 57 14 87 87 E 3 6 30.07 1018 10 16 N/A
12:35 am 00:35 Clear 62 16.7 57 13.8 83 83 ENE 5 7 30.07 1018 10 16 N/A
12:55 am 00:55 Clear 62 16.9 57 13.8 82 82 NNE 6 9 30.07 1018 10 16 N/A
1:15 am 01:15 Clear 61 16.3 57 13.7 85 85 NNE 5 7 30.07 1018 10 16 N/A
1:35 am 01:35 Clear 60 15.8 57 13.8 88 88 NNE 5 7 30.07 1018 10 16 N/A
1:55 am 01:55 Clear 60 15.3 57 13.7 90 90 NNE 5 7 30.08 1018 10 16 N/A
2:15 am 02:15 Clear 59 15 57 13.7 92 92 NNE 5 7 30.08 1019 10 16 N/A
2:35 am 02:35 Clear 58 14.7 56 13.6 93 93 NNE 6 9 30.08 1019 10 16 N/A
2:55 am 02:55 Clear 59 15 57 14 94 94 NNE 5 7 30.09 1019 10 16 N/A
3:15 am 03:15 Clear 59 15 56 13.6 91 91 N 6 9 30.09 1019 10 16 N/A
3:35 am 03:35 Clear 59 14.8 56 13.5 92 92 NNE 6 9 30.09 1019 10 16 N/A
3:55 am 03:55 Clear 58 14.5 56 13.4 93 93 N 6 9 30.10 1019 10 16 N/A
4:15 am 04:15 Clear 58 14.6 56 13.4 93 93 NNE 6 9 30.10 1019 10 16 N/A
4:35 am 04:35 Clear 58 14.5 56 13.4 93 93 NNE 6 9 30.11 1020 10 16 N/A
4:55 am 04:55 Clear 58 14.4 56 13.4 94 94 N 6 9 30.11 1020 10 16 N/A
5:15 am 05:15 Clear 57 14 56 13.5 97 97 N 5 7 30.12 1020 10 16 N/A
5:35 am 05:35 Clear 56 13.6 56 13.3 98 98 NNE 5 7 30.12 1020 10 16 N/A
5:55 am 05:55 Clear 56 13.3 56 13.3 100 100 NNE 6 9 30.12 1020 10 16 N/A
6:15 am 06:15 Clear 55 13 55 13 100 100 NE 5 7 30.13 1020 10 16 N/A
6:35 am 06:35 Clear 55 13 55 13 100 100 NNE 5 7 30.13 1020 7 11 N/A
6:55 am 06:55 Sunny 55 13 N/A N/A NNE 6 9 30.13 1020 7 11 N/A
7:15 am 07:15 Sunny 55 13 N/A N/A NNE 5 7 30.14 1021 7 11 N/A
7:35 am 07:35 Sunny 57 13.9 57 13.7 99 99 N 3 6 30.14 1021 10 16 N/A
7:55 am 07:55 Sunny 58 14.7 58 14.3 97 97 NNE 3 6 30.15 1021 10 16 N/A
8:15 am 08:15 Sunny 61 15.9 58 14.7 93 93 NE 6 9 30.14 1021 10 16 N/A
8:35 am 08:35 Sunny 62 16.4 59 14.9 91 91 NE 7 11 30.14 1021 10 16 N/A
8:55 am 08:55 Sunny 63 17.4 60 15.3 88 88 NNE 7 11 30.15 1021 10 16 N/A
9:15 am 09:15 Sunny 65 18.1 60 15.5 85 85 ENE 6 9 30.15 1021 10 16 N/A
9:35 am 09:35 Sunny 66 18.8 60 15.6 82 82 ENE 6 9 30.16 1021 10 16 N/A
9:55 am 09:55 Sunny 68 19.8 61 15.9 78 78 NE 5 7 30.16 1021 10 16 N/A
10:15 am 10:15 Sunny 69 20.3 61 16 76 76 ENE 5 7 30.15 1021 10 16 N/A
10:35 am 10:35 Sunny 69 20.8 60 15.7 73 73 NNE 6 9 30.14 1021 10 16 N/A
10:55 am 10:55 Mostly Cloudy 71 21.6 61 16 71 71 N 6 9 30.14 1021 10 16 N/A
11:15 am 11:15 Partly Cloudy 72 22.2 59 15.2 65 65 E 6 9 30.14 1021 10 16 N/A
11:35 am 11:35 Partly Cloudy 71 21.7 59 14.8 65 65 NNE 6 9 30.14 1021 10 16 N/A
11:55 am 11:55 Partly Cloudy 73 22.6 58 14.7 61 61 NE 5 7 30.14 1021 10 16 N/A
12:15 pm 12:15 Sunny 71 21.6 57 14.1 62 62 NE 6 9 30.14 1021 10 16 N/A
12:35 pm 12:35 Partly Cloudy 76 24.2 60 15.3 58 58 N 7 11 30.13 1020 10 16 N/A
12:55 pm 12:55 Mostly Cloudy 74 23.5 59 15.2 60 60 N 7 11 30.13 1020 10 16 N/A
1:15 pm 13:15 Mostly Cloudy 76 24.4 57 14.1 53 53 E 9 15 30.12 1020 10 16 N/A
1:35 pm 13:35 Partly Cloudy 76 24.6 57 14.1 52 52 NE 9 15 30.11 1020 10 16 N/A
1:55 pm 13:55 Partly Cloudy 76 24.4 57 13.8 52 52 E 9 15 30.11 1020 10 16 N/A
2:15 pm 14:15 Mostly Cloudy 77 24.9 57 13.7 50 50 N 7 11 30.11 1020 10 16 N/A
2:35 pm 14:35 Partly Cloudy 77 25 55 12.7 46 46 ENE 3 6 30.10 1019 10 16 N/A
2:55 pm 14:55 Mostly Cloudy 77 24.8 55 12.9 48 48 N 7 11 30.10 1019 10 16 N/A
3:15 pm 15:15 Mostly Cloudy 77 25.2 55 12.8 46 46 NNE 6 9 30.09 1019 10 16 N/A
3:35 pm 15:35 Hazy 79 26 56 13.4 46 46 NE 8 13 30.08 1019 7 11 N/A
3:55 pm 15:55 Partly Cloudy 74 23.6 56 13.4 53 53 NNE 6 9 30.09 1019 10 16 N/A
4:15 pm 16:15 Mostly Cloudy 79 26 57 13.9 47 47 ENE 10 17 30.07 1018 10 16 N/A
4:35 pm 16:35 Sunny 76 24.4 55 12.8 48 48 ENE 5 7 30.07 1018 10 16 N/A
4:55 pm 16:55 Partly Cloudy 79 26.2 56 13.2 45 45 E 8 13 30.07 1018 10 16 N/A
5:15 pm 17:15 Mostly Cloudy 76 24.5 55 12.8 48 48 ENE 6 9 30.06 1018 10 16 N/A
5:35 pm 17:35 Sunny 78 25.7 56 13.3 46 46 E 7 11 30.06 1018 10 16 N/A
5:55 pm 17:55 Sunny 79 26.1 56 13.5 46 46 E 10 17 30.06 1018 10 16 N/A
6:15 pm 18:15 Sunny 78 25.5 55 12.5 44 44 E 5 7 30.06 1018 10 16 N/A
6:35 pm 18:35 Partly Cloudy 77 25.2 55 12.5 45 45 ENE 8 13 30.06 1018 10 16 N/A
6:55 pm 18:55 Sunny 78 25.3 55 12.8 46 46 ESE 7 11 30.06 1018 10 16 N/A
7:15 pm 19:15 Partly Cloudy 77 24.9 54 12.4 46 46 E 7 11 30.06 1018 10 16 N/A
7:35 pm 19:35 Sunny 76 24.6 54 12.4 47 47 E 7 11 30.06 1018 10 16 N/A
7:55 pm 19:55 Sunny 75 23.8 55 12.7 50 50 E 7 11 30.07 1018 10 16 N/A
8:15 pm 20:15 Sunny 73 22.5 57 13.9 58 58 ENE 3 6 30.07 1018 10 16 N/A
8:35 pm 20:35 Sunny 71 21.8 57 14.1 62 62 NE 3 6 30.07 1018 10 16 N/A
8:55 pm 20:55 Clear 66 18.7 62 16.5 87 87 N 3 6 30.08 1019 10 16 N/A
9:15 pm 21:15 Clear 64 17.8 61 16.3 91 91 N 6 9 30.08 1019 10 16 N/A
9:35 pm 21:35 Clear 63 17.1 60 15.6 91 91 N 3 6 30.09 1019 10 16 N/A
9:55 pm 21:55 Clear with Mist and Fog 63 17 61 15.9 93 93 N 3 6 30.09 1019 5 8 N/A
10:15 pm 22:15 Clear 63 17.1 60 15.5 90 90 N N/A 30.11 1020 10 16 N/A
10:35 pm 22:35 Clear 62 16.5 60 15.5 94 94 N 3 6 30.11 1020 10 16 N/A
10:55 pm 22:55 Clear 61 16.3 60 15.5 95 95 N 3 6 30.11 1020 10 16 N/A
11:15 pm 23:15 Clear 60 15.7 59 15 96 96 N 6 9 30.11 1020 10 16 N/A
11:35 pm 23:35 Clear 60 15.8 59 15 95 95 N 5 7 30.11 1020 10 16 N/A
11:55 pm 23:55 Clear 60 15.3 58 14.7 96 96 N 5 7 30.12 1020 10 16 N/A

Powered by AerisWeather